TimeCDT,TemperatureF,Dew PointF,Humidity,Sea Level PressureIn,VisibilityMPH,Wind Direction,Wind SpeedMPH,Gust SpeedMPH,PrecipitationIn,Events,Conditions,WindDirDegrees,DateUTC
12:15 AM,62.6,53.6,72,30.09,10.0,South,8.1,-,N/A,,Clear,190,2013-08-19 05:15:00
12:35 AM,62.6,53.6,72,30.08,10.0,SSW,6.9,-,N/A,,Clear,200,2013-08-19 05:35:00
12:55 AM,60.8,53.6,77,30.08,10.0,SSW,8.1,-,N/A,,Clear,200,2013-08-19 05:55:00
1:15 AM,60.8,53.6,77,30.08,10.0,SSW,8.1,-,N/A,,Clear,200,2013-08-19 06:15:00
1:35 AM,60.8,53.6,77,30.07,10.0,SSW,8.1,-,N/A,,Clear,200,2013-08-19 06:35:00
1:55 AM,60.8,53.6,77,30.07,10.0,SSW,8.1,-,N/A,,Clear,210,2013-08-19 06:55:00
2:15 AM,62.6,53.6,72,30.08,10.0,SW,8.1,-,N/A,,Clear,220,2013-08-19 07:15:00
2:35 AM,62.6,55.4,77,30.07,10.0,SW,6.9,-,N/A,,Clear,230,2013-08-19 07:35:00
2:55 AM,62.6,55.4,77,30.07,10.0,SW,6.9,-,N/A,,Clear,220,2013-08-19 07:55:00
3:15 AM,62.6,55.4,77,30.07,10.0,SW,5.8,-,N/A,,Clear,220,2013-08-19 08:15:00
3:35 AM,60.8,55.4,82,30.06,10.0,SW,5.8,-,N/A,,Clear,220,2013-08-19 08:35:00
3:55 AM,60.8,55.4,82,30.07,10.0,SW,5.8,-,N/A,,Clear,230,2013-08-19 08:55:00
4:15 AM,60.8,55.4,82,30.07,10.0,SW,5.8,-,N/A,,Clear,220,2013-08-19 09:15:00
4:35 AM,60.8,55.4,82,30.07,10.0,SW,5.8,-,N/A,,Clear,230,2013-08-19 09:35:00
4:55 AM,60.8,55.4,82,30.06,10.0,SW,5.8,-,N/A,,Clear,230,2013-08-19 09:55:00
5:15 AM,60.8,57.2,88,30.06,9.0,SW,4.6,-,N/A,,Clear,230,2013-08-19 10:15:00
5:35 AM,60.8,55.4,82,30.07,7.0,SW,4.6,-,N/A,,Clear,220,2013-08-19 10:35:00
5:55 AM,60.8,55.4,82,30.07,7.0,SW,5.8,-,N/A,,Clear,220,2013-08-19 10:55:00
6:15 AM,59.0,55.4,88,30.07,5.0,SW,4.6,-,N/A,,Clear,220,2013-08-19 11:15:00
6:35 AM,59.0,55.4,88,30.08,7.0,SSW,4.6,-,N/A,,Clear,210,2013-08-19 11:35:00
6:55 AM,60.8,55.4,82,30.08,7.0,SSW,4.6,-,N/A,,Clear,200,2013-08-19 11:55:00
7:15 AM,60.8,57.2,88,30.08,9.0,SSW,5.8,-,N/A,,Clear,200,2013-08-19 12:15:00
7:35 AM,62.6,57.2,82,30.07,10.0,SSW,5.8,-,N/A,,Clear,200,2013-08-19 12:35:00
7:55 AM,64.4,57.2,77,30.07,10.0,SSW,6.9,-,N/A,,Clear,200,2013-08-19 12:55:00
8:15 AM,66.2,57.2,73,30.07,10.0,SSW,6.9,-,N/A,,Clear,210,2013-08-19 13:15:00
8:35 AM,68.0,59.0,73,30.06,10.0,SSW,6.9,-,N/A,,Clear,210,2013-08-19 13:35:00
8:55 AM,69.8,59.0,68,30.07,10.0,SW,6.9,-,N/A,,Clear,220,2013-08-19 13:55:00
9:15 AM,71.6,60.8,69,30.07,10.0,SW,8.1,-,N/A,,Clear,230,2013-08-19 14:15:00
9:35 AM,73.4,59.0,61,30.08,10.0,WSW,9.2,-,N/A,,Clear,240,2013-08-19 14:35:00
9:55 AM,73.4,59.0,61,30.08,10.0,WSW,9.2,-,N/A,,Clear,240,2013-08-19 14:55:00
10:15 AM,75.2,57.2,53,30.08,10.0,WSW,8.1,-,N/A,,Clear,250,2013-08-19 15:15:00
10:35 AM,75.2,59.0,57,30.07,10.0,WSW,10.4,-,N/A,,Clear,250,2013-08-19 15:35:00
11:15 AM,75.2,59.0,57,30.05,10.0,SW,10.4,-,N/A,,Clear,230,2013-08-19 16:15:00
11:35 AM,77.0,60.8,57,30.04,10.0,SW,11.5,-,N/A,,Clear,220,2013-08-19 16:35:00
11:55 AM,78.8,60.8,54,30.04,10.0,WSW,10.4,-,N/A,,Clear,240,2013-08-19 16:55:00
12:15 PM,78.8,59.0,51,30.04,10.0,WSW,11.5,-,N/A,,Clear,250,2013-08-19 17:15:00
12:35 PM,78.8,57.2,47,30.04,10.0,SW,12.7,18.4,N/A,,Clear,220,2013-08-19 17:35:00
12:55 PM,80.6,57.2,45,30.03,10.0,SW,13.8,20.7,N/A,,Clear,230,2013-08-19 17:55:00
1:15 PM,80.6,57.2,45,30.02,10.0,SW,13.8,19.6,N/A,,Partly Cloudy,220,2013-08-19 18:15:00
1:35 PM,80.6,57.2,45,30.01,10.0,WSW,17.3,21.9,N/A,,Partly Cloudy,240,2013-08-19 18:35:00
1:55 PM,80.6,57.2,45,30.01,10.0,SW,11.5,19.6,N/A,,Clear,230,2013-08-19 18:55:00
2:15 PM,80.6,57.2,45,30.01,10.0,SSW,12.7,-,N/A,,Clear,210,2013-08-19 19:15:00
2:35 PM,80.6,59.0,48,30.01,10.0,WSW,16.1,19.6,N/A,,Scattered Clouds,240,2013-08-19 19:35:00
2:55 PM,82.4,57.2,42,30.01,10.0,WSW,15.0,20.7,N/A,,Partly Cloudy,250,2013-08-19 19:55:00
3:15 PM,80.6,57.2,45,30.01,10.0,WSW,13.8,21.9,N/A,,Clear,240,2013-08-19 20:15:00
3:35 PM,80.6,55.4,42,30.00,10.0,WSW,17.3,20.7,N/A,,Clear,250,2013-08-19 20:35:00
3:55 PM,80.6,57.2,45,30.00,10.0,WSW,17.3,-,N/A,,Clear,250,2013-08-19 20:55:00
4:15 PM,80.6,57.2,45,30.00,10.0,SW,18.4,21.9,N/A,,Clear,230,2013-08-19 21:15:00
4:35 PM,80.6,57.2,45,30.00,10.0,WSW,13.8,20.7,N/A,,Clear,240,2013-08-19 21:35:00
4:55 PM,80.6,57.2,45,30.00,10.0,WSW,15.0,20.7,N/A,,Clear,240,2013-08-19 21:55:00
5:15 PM,80.6,60.8,51,30.00,10.0,WSW,10.4,-,N/A,,Clear,250,2013-08-19 22:15:00
5:35 PM,78.8,57.2,47,30.00,10.0,SW,12.7,-,N/A,,Clear,220,2013-08-19 22:35:00
5:55 PM,78.8,57.2,47,30.00,10.0,WSW,9.2,17.3,N/A,,Clear,240,2013-08-19 22:55:00
6:15 PM,78.8,57.2,47,29.99,10.0,WSW,11.5,-,N/A,,Clear,240,2013-08-19 23:15:00
6:35 PM,78.8,57.2,47,29.99,10.0,SW,8.1,-,N/A,,Clear,220,2013-08-19 23:35:00
6:55 PM,77.0,57.2,50,29.99,10.0,SW,8.1,-,N/A,,Clear,220,2013-08-19 23:55:00
7:15 PM,75.2,57.2,53,29.98,10.0,SSW,8.1,-,N/A,,Clear,210,2013-08-20 00:15:00
7:35 PM,73.4,57.2,57,29.98,10.0,SSW,6.9,-,N/A,,Clear,200,2013-08-20 00:35:00
7:55 PM,71.6,60.8,69,29.99,10.0,South,5.8,-,N/A,,Clear,180,2013-08-20 00:55:00
8:15 PM,69.8,60.8,73,29.99,10.0,South,5.8,-,N/A,,Clear,190,2013-08-20 01:15:00
8:35 PM,69.8,60.8,73,29.99,10.0,South,5.8,-,N/A,,Clear,190,2013-08-20 01:35:00
8:55 PM,69.8,60.8,73,29.99,10.0,South,6.9,-,N/A,,Clear,190,2013-08-20 01:55:00
9:15 PM,69.8,59.0,68,29.99,10.0,South,8.1,-,N/A,,Clear,190,2013-08-20 02:15:00
9:35 PM,69.8,59.0,68,29.99,10.0,SSW,9.2,-,N/A,,Clear,200,2013-08-20 02:35:00
9:55 PM,69.8,59.0,68,29.99,10.0,SSW,9.2,-,N/A,,Clear,200,2013-08-20 02:55:00
10:15 PM,69.8,59.0,68,29.99,10.0,SSW,8.1,-,N/A,,Clear,200,2013-08-20 03:15:00
10:35 PM,69.8,59.0,68,29.99,10.0,SSW,8.1,-,N/A,,Clear,200,2013-08-20 03:35:00
10:55 PM,68.0,59.0,73,30.00,10.0,SSW,8.1,-,N/A,,Clear,200,2013-08-20 03:55:00
11:15 PM,68.0,59.0,73,30.00,10.0,SSW,6.9,-,N/A,,Clear,200,2013-08-20 04:15:00
11:35 PM,66.2,59.0,78,30.00,10.0,SSW,8.1,-,N/A,,Clear,210,2013-08-20 04:35:00
11:55 PM,66.2,59.0,78,30.00,10.0,SSW,8.1,-,N/A,,Clear,210,2013-08-20 04:55:00